Location: Madrid
(40.4000°N, 3.6830°W)
Time: 17:04:19
(UTC+02:00)

ISS - Visible Passes

Search period start: 22 September 2018 00:00
Search period end: 02 October 2018 00:00
Orbit: 403 x 408 km, 51.6° (Epoch: 22 September)

Date Brightness Start Highest point End Pass type
(mag) Time Alt. Az. Time Alt. Az. Time Alt. Az.
22 Sep -3.5 21:58:20 10° WSW 22:01:35 62° NW 22:01:35 62° NW visible
23 Sep -3.9 21:06:29 10° SW 21:09:44 68° SE 21:12:20 15° ENE visible
23 Sep -0.7 22:43:55 10° WNW 22:45:03 16° WNW 22:45:03 16° WNW visible
24 Sep -2.1 21:51:30 10° W 21:54:28 30° NNW 21:55:35 24° N visible
25 Sep -3.0 20:59:16 10° WSW 21:02:29 49° NNW 21:05:42 10° NE visible
25 Sep -0.7 22:37:37 10° NW 22:38:41 14° NNW 22:38:41 14° NNW visible
26 Sep -1.4 21:45:01 10° WNW 21:47:25 19° NNW 21:48:58 14° NNE visible
27 Sep -1.8 20:52:29 10° W 20:55:19 26° NNW 20:58:08 10° NE visible
27 Sep -0.6 22:31:16 10° NNW 22:31:49 11° NNW 22:31:49 11° NNW visible
28 Sep -1.1 21:38:40 10° NW 21:40:27 14° N 21:41:55 11° NNE visible
29 Sep -1.3 20:45:59 10° WNW 20:48:13 17° NNW 20:50:29 10° NNE visible
29 Sep -0.6 22:24:25 10° NNW 22:24:38 11° NNW 22:24:38 11° NNW visible
30 Sep -1.1 21:32:09 10° NNW 21:33:29 12° N 21:34:39 10° NNE visible
01 Oct -1.2 20:39:34 10° NW 20:41:12 13° N 20:42:50 10° NNE visible
01 Oct -0.7 22:16:56 10° NNW 22:17:18 11° NNW 22:17:18 11° NNW visible
